| time (UTC) | temp F | wind direction | speed MPH | gust MPH | rain 1hr in | rain 24hr in | rain mn in | humidity % | barometer mb |
| 20260505060520 | 57 | 288 | 1.0 | 5.0 | 0.00 | 0.00 | 0.00 | 66 | 1009.2 |
| 20260505060045 | 57 | 319 | 1.0 | 2.0 | 0.00 | 0.00 | 0.00 | 66 | 1009.2 |
| 20260505055520 | 57 | 39 | 1.0 | 3.0 | 0.00 | 0.00 | 0.00 | 63 | 1009.2 |
| 20260505055020 | 57 | 235 | 1.0 | 4.0 | 0.00 | 0.00 | 0.00 | 65 | 1009.2 |
| 20260505054538 | 56 | 274 | 1.0 | 4.0 | 0.00 | 0.00 | 0.00 | 65 | 1009.3 |
| 20260505054018 | 56 | 328 | 1.0 | 4.0 | 0.00 | 0.00 | 0.00 | 65 | 1009.3 |
| 20260505053517 | 56 | 107 | 0.0 | 6.0 | 0.00 | 0.00 | 0.00 | 67 | 1009.2 |
| 20260505053035 | 55 | 107 | 2.0 | 6.0 | 0.00 | 0.00 | 0.00 | 69 | 1009.2 |
| 20260505052521 | 54 | 355 | 1.0 | 3.0 | 0.00 | 0.00 | 0.00 | 71 | 1009.1 |
| 20260505052021 | 54 | 23 | 1.0 | 3.0 | 0.00 | 0.00 | 0.00 | 70 | 1009.2 |
| 20260505051539 | 54 | 37 | 1.0 | 2.0 | 0.00 | 0.00 | 0.00 | 69 | 1009.3 |
| 20260505051022 | 54 | 54 | 1.0 | 3.0 | 0.00 | 0.00 | 0.00 | 70 | 1009.1 |
| 20260505050520 | 54 | 105 | 1.0 | 3.0 | 0.00 | 0.00 | 0.00 | 69 | 1009.3 |
| 20260505041539 | 53 | 359 | 0.0 | 4.0 | 0.00 | 0.00 | 0.00 | 71 | 1009.3 |
| 20260505041016 | 53 | 3 | 1.0 | 4.0 | 0.00 | 0.00 | 0.00 | 72 | 1009.4 |
| 20260505040520 | 53 | 15 | 1.0 | 2.0 | 0.00 | 0.00 | 0.00 | 72 | 1009.3 |
| 20260505040038 | 53 | 340 | 1.0 | 2.0 | 0.00 | 0.00 | 0.00 | 72 | 1009.3 |
| 20260505035518 | 53 | 350 | 0.0 | 2.0 | 0.00 | 0.00 | 0.00 | 72 | 1009.3 |
| 20260505035018 | 53 | 1 | 1.0 | 4.0 | 0.00 | 0.00 | 0.00 | 70 | 1009.3 |
| 20260505034534 | 54 | 23 | 1.0 | 4.0 | 0.00 | 0.00 | 0.00 | 71 | 1009.3 |
| 20260505034020 | 53 | 1 | 0.0 | 4.0 | 0.00 | 0.00 | 0.00 | 69 | 1009.3 |
| 20260505033520 | 53 | 0 | 0.0 | 2.0 | 0.00 | 0.00 | 0.00 | 72 | 1009.3 |
| 20260505033037 | 53 | 29 | 0.0 | 2.0 | 0.00 | 0.00 | 0.00 | 72 | 1009.2 |
| 20260505032521 | 53 | 6 | 0.0 | 2.0 | 0.00 | 0.00 | 0.00 | 73 | 1009.2 |
| 20260505032019 | 52 | 23 | 0.0 | 2.0 | 0.00 | 0.00 | 0.00 | 73 | 1009.2 |
| 20260505031537 | 52 | 0 | 0.0 | 0.0 | 0.00 | 0.00 | 0.00 | 74 | 1009.3 |
| 20260505031016 | 52 | 0 | 0.0 | 0.0 | 0.00 | 0.00 | 0.00 | 73 | 1009.2 |
| 20260505030520 | 53 | 0 | 0.0 | 0.0 | 0.00 | 0.00 | 0.00 | 73 | 1009.1 |
| 20260505030039 | 52 | 0 | 0.0 | 0.0 | 0.00 | 0.00 | 0.00 | 73 | 1009.3 |
| 20260505025522 | 52 | 0 | 0.0 | 0.0 | 0.00 | 0.00 | 0.00 | 74 | 1009.2 |
| 20260505025020 | 52 | 0 | 0.0 | 0.0 | 0.00 | 0.00 | 0.00 | 73 | 1009.3 |
| 20260505024536 | 53 | 0 | 0.0 | 0.0 | 0.00 | 0.00 | 0.00 | 73 | 1009.3 |
| 20260505024017 | 53 | 0 | 0.0 | 0.0 | 0.00 | 0.00 | 0.00 | 73 | 1009.3 |
| 20260505023519 | 53 | 0 | 0.0 | 0.0 | 0.00 | 0.00 | 0.00 | 72 | 1009.3 |
| 20260505023035 | 53 | 0 | 0.0 | 0.0 | 0.00 | 0.00 | 0.00 | 73 | 1009.4 |
| 20260505022518 | 53 | 0 | 0.0 | 0.0 | 0.00 | 0.00 | 0.00 | 73 | 1009.3 |
| 20260505022022 | 53 | 0 | 0.0 | 0.0 | 0.00 | 0.00 | 0.00 | 73 | 1009.4 |
| 20260505021534 | 53 | 0 | 0.0 | 0.0 | 0.00 | 0.00 | 0.00 | 72 | 1009.4 |
| 20260505021018 | 53 | 0 | 0.0 | 0.0 | 0.00 | 0.00 | 0.00 | 71 | 1009.4 |
| 20260505020519 | 53 | 0 | 0.0 | 0.0 | 0.00 | 0.00 | 0.00 | 70 | 1009.3 |
| 20260505020037 | 53 | 0 | 0.0 | 0.0 | 0.00 | 0.00 | 0.00 | 72 | 1009.3 |
| 20260505015520 | 53 | 0 | 0.0 | 0.0 | 0.00 | 0.00 | 0.00 | 72 | 1009.2 |
| 20260505015024 | 53 | 0 | 0.0 | 0.0 | 0.00 | 0.00 | 0.00 | 73 | 1009.1 |
| 20260505014537 | 53 | 0 | 0.0 | 0.0 | 0.00 | 0.00 | 0.00 | 72 | 1009.0 |
| 20260505014024 | 53 | 0 | 0.0 | 0.0 | 0.00 | 0.00 | 0.00 | 72 | 1009.0 |
| 20260505013518 | 53 | 0 | 0.0 | 0.0 | 0.00 | 0.00 | 0.00 | 72 | 1009.0 |
| 20260505013056 | 53 | 0 | 0.0 | 0.0 | 0.00 | 0.00 | 0.00 | 71 | 1009.0 |
| 20260505012518 | 54 | 0 | 0.0 | 0.0 | 0.00 | 0.00 | 0.00 | 71 | 1008.9 |
| 20260505012018 | 54 | 0 | 0.0 | 0.0 | 0.00 | 0.00 | 0.00 | 70 | 1009.0 |
| 20260505011535 | 54 | 0 | 0.0 | 0.0 | 0.00 | 0.00 | 0.00 | 70 | 1008.9 |
| 20260505011017 | 54 | 0 | 0.0 | 0.0 | 0.00 | 0.00 | 0.00 | 69 | 1008.9 |
| 20260505010520 | 54 | 0 | 0.0 | 0.0 | 0.00 | 0.00 | 0.00 | 69 | 1008.9 |
| 20260505010036 | 54 | 0 | 0.0 | 0.0 | 0.00 | 0.00 | 0.00 | 69 | 1008.9 |
| 20260505005520 | 55 | 0 | 0.0 | 0.0 | 0.00 | 0.00 | 0.00 | 69 | 1008.8 |
| 20260505005017 | 55 | 0 | 0.0 | 0.0 | 0.00 | 0.00 | 0.00 | 69 | 1008.7 |
| 20260505004538 | 55 | 0 | 0.0 | 0.0 | 0.00 | 0.00 | 0.00 | 68 | 1008.7 |
| 20260505004016 | 55 | 0 | 0.0 | 0.0 | 0.00 | 0.00 | 0.00 | 69 | 1008.8 |
| 20260505003519 | 55 | 0 | 0.0 | 0.0 | 0.00 | 0.00 | 0.00 | 68 | 1008.8 |
| 20260505003034 | 56 | 0 | 0.0 | 0.0 | 0.00 | 0.00 | 0.00 | 68 | 1008.8 |
| 20260505002518 | 56 | 0 | 0.0 | 0.0 | 0.00 | 0.00 | 0.00 | 68 | 1008.5 |
| 20260505002019 | 56 | 0 | 0.0 | 0.0 | 0.00 | 0.00 | 0.00 | 68 | 1008.4 |
| 20260505001538 | 56 | 0 | 0.0 | 2.0 | 0.00 | 0.00 | 0.00 | 67 | 1008.3 |
| 20260505001020 | 57 | 0 | 0.0 | 2.0 | 0.00 | 0.00 | 0.00 | 67 | 1008.2 |
| 20260505000516 | 58 | 358 | 1.0 | 2.0 | 0.00 | 0.00 | 0.00 | 66 | 1008.2 |
| 20260505000050 | 58 | 347 | 0.0 | 1.0 | 0.00 | 0.00 | 0.00 | 64 | 1008.1 |
| 20260504235520 | 59 | 0 | 0.0 | 1.0 | 0.00 | 0.00 | 0.00 | 63 | 1008.2 |
| 20260504235020 | 59 | 342 | 0.0 | 2.0 | 0.00 | 0.00 | 0.00 | 62 | 1008.1 |
| 20260504234536 | 60 | 75 | 1.0 | 2.0 | 0.00 | 0.00 | 0.00 | 59 | 1008.0 |
| 20260504234016 | 61 | 82 | 1.0 | 2.0 | 0.00 | 0.00 | 0.00 | 58 | 1008.1 |
| 20260504233518 | 61 | 325 | 0.0 | 1.0 | 0.00 | 0.00 | 0.00 | 58 | 1007.8 |
| 20260504233036 | 62 | 326 | 0.0 | 2.0 | 0.00 | 0.00 | 0.00 | 54 | 1007.9 |
| 20260504232517 | 64 | 326 | 1.0 | 2.0 | 0.00 | 0.00 | 0.00 | 53 | 1007.6 |
| 20260504232018 | 64 | 0 | 1.0 | 5.0 | 0.00 | 0.00 | 0.00 | 49 | 1007.6 |
| 20260504231532 | 65 | 306 | 0.0 | 5.0 | 0.00 | 0.00 | 0.00 | 46 | 1007.6 |
| 20260504231016 | 65 | 0 | 1.0 | 5.0 | 0.00 | 0.00 | 0.00 | 46 | 1007.5 |
| 20260504230519 | 66 | 0 | 0.0 | 2.0 | 0.00 | 0.00 | 0.00 | 44 | 1007.5 |
| 20260504230032 | 66 | 248 | 0.0 | 3.0 | 0.00 | 0.00 | 0.00 | 43 | 1007.5 |
| 20260504225516 | 67 | 248 | 1.0 | 4.0 | 0.00 | 0.00 | 0.00 | 42 | 1007.4 |
| 20260504225017 | 67 | 210 | 1.0 | 6.0 | 0.00 | 0.00 | 0.00 | 42 | 1007.4 |
| 20260504224536 | 67 | 252 | 2.0 | 7.0 | 0.00 | 0.00 | 0.00 | 42 | 1007.4 |
| 20260504224019 | 67 | 234 | 2.0 | 7.0 | 0.00 | 0.00 | 0.00 | 42 | 1007.3 |
| 20260504223518 | 68 | 211 | 2.0 | 12.0 | 0.00 | 0.00 | 0.00 | 41 | 1007.5 |
| 20260504223042 | 68 | 336 | 3.0 | 12.0 | 0.00 | 0.00 | 0.00 | 40 | 1007.2 |
| 20260504222521 | 69 | 323 | 3.0 | 7.0 | 0.00 | 0.00 | 0.00 | 40 | 1007.2 |
| 20260504222021 | 68 | 327 | 1.0 | 7.0 | 0.00 | 0.00 | 0.00 | 41 | 1007.2 |
| 20260504221535 | 68 | 267 | 2.0 | 7.0 | 0.00 | 0.00 | 0.00 | 40 | 1007.3 |
| 20260504221019 | 68 | 274 | 2.0 | 7.0 | 0.00 | 0.00 | 0.00 | 41 | 1007.2 |
| 20260504220518 | 69 | 193 | 3.0 | 7.0 | 0.00 | 0.00 | 0.00 | 40 | 1007.2 |
| 20260504220041 | 69 | 124 | 2.0 | 9.0 | 0.00 | 0.00 | 0.00 | 40 | 1007.2 |
| 20260504215519 | 69 | 168 | 2.0 | 17.0 | 0.00 | 0.00 | 0.00 | 41 | 1007.3 |
| 20260504215017 | 69 | 300 | 3.0 | 17.0 | 0.00 | 0.00 | 0.00 | 40 | 1007.3 |
| 20260504214542 | 69 | 206 | 3.0 | 10.0 | 0.00 | 0.00 | 0.00 | 39 | 1007.3 |
| 20260504214019 | 69 | 276 | 3.0 | 10.0 | 0.00 | 0.00 | 0.00 | 42 | 1007.5 |
| 20260504213516 | 69 | 51 | 3.0 | 12.0 | 0.00 | 0.00 | 0.00 | 41 | 1007.3 |
| 20260504213039 | 69 | 175 | 4.0 | 12.0 | 0.00 | 0.00 | 0.00 | 40 | 1007.5 |
| 20260504212520 | 69 | 248 | 2.0 | 10.0 | 0.00 | 0.00 | 0.00 | 43 | 1007.3 |
| 20260504212024 | 69 | 176 | 3.0 | 10.0 | 0.00 | 0.00 | 0.00 | 40 | 1007.4 |
| 20260504211536 | 69 | 207 | 2.0 | 6.0 | 0.00 | 0.00 | 0.00 | 42 | 1007.5 |
| 20260504211017 | 70 | 278 | 3.0 | 9.0 | 0.00 | 0.00 | 0.00 | 41 | 1007.4 |
| 20260504210517 | 69 | 245 | 2.0 | 9.0 | 0.00 | 0.00 | 0.00 | 43 | 1007.5 |
| 20260504210037 | 69 | 168 | 3.0 | 14.0 | 0.00 | 0.00 | 0.00 | 40 | 1007.4 |
| 20260504205516 | 69 | 184 | 3.0 | 14.0 | 0.00 | 0.00 | 0.00 | 42 | 1007.3 |
| 20260504205017 | 69 | 203 | 5.0 | 14.0 | 0.00 | 0.00 | 0.00 | 40 | 1007.6 |
| 20260504204534 | 68 | 291 | 2.0 | 11.0 | 0.00 | 0.00 | 0.00 | 42 | 1007.5 |
| 20260504204020 | 67 | 256 | 3.0 | 6.0 | 0.00 | 0.00 | 0.00 | 42 | 1007.6 |
| 20260504203520 | 67 | 173 | 2.0 | 14.0 | 0.00 | 0.00 | 0.00 | 45 | 1007.6 |
| 20260504203036 | 66 | 194 | 4.0 | 14.0 | 0.00 | 0.00 | 0.00 | 43 | 1007.6 |
| 20260504202518 | 67 | 173 | 3.0 | 11.0 | 0.00 | 0.00 | 0.00 | 44 | 1008.0 |
| 20260504202019 | 67 | 198 | 5.0 | 12.0 | 0.00 | 0.00 | 0.00 | 42 | 1007.9 |
| 20260504201548 | 67 | 213 | 3.0 | 12.0 | 0.00 | 0.00 | 0.00 | 44 | 1008.0 |
| 20260504201019 | 67 | 216 | 5.0 | 12.0 | 0.00 | 0.00 | 0.00 | 43 | 1007.9 |
| 20260504200516 | 67 | 201 | 4.0 | 10.0 | 0.00 | 0.00 | 0.00 | 43 | 1008.1 |
| 20260504200038 | 68 | 124 | 4.0 | 11.0 | 0.00 | 0.00 | 0.00 | 41 | 1007.9 |
| 20260504195518 | 68 | 139 | 4.0 | 13.0 | 0.00 | 0.00 | 0.00 | 41 | 1008.0 |
| 20260504195018 | 68 | 242 | 4.0 | 13.0 | 0.00 | 0.00 | 0.00 | 43 | 1008.1 |
| 20260504194537 | 68 | 94 | 6.0 | 13.0 | 0.00 | 0.00 | 0.00 | 44 | 1008.0 |
| 20260504194018 | 68 | 149 | 5.0 | 10.0 | 0.00 | 0.00 | 0.00 | 41 | 1007.9 |
| 20260504193518 | 68 | 1 | 5.0 | 14.0 | 0.00 | 0.00 | 0.00 | 40 | 1008.1 |
| 20260504193037 | 68 | 197 | 3.0 | 14.0 | 0.00 | 0.00 | 0.00 | 44 | 1007.9 |
| 20260504192519 | 67 | 138 | 5.0 | 14.0 | 0.00 | 0.00 | 0.00 | 41 | 1008.0 |
| 20260504192017 | 67 | 207 | 4.0 | 15.0 | 0.00 | 0.00 | 0.00 | 41 | 1008.0 |
| 20260504191539 | 68 | 129 | 5.0 | 15.0 | 0.00 | 0.00 | 0.00 | 41 | 1008.2 |
| 20260504191019 | 68 | 179 | 6.0 | 16.0 | 0.00 | 0.00 | 0.00 | 41 | 1008.0 |
| 20260504190519 | 68 | 304 | 2.0 | 16.0 | 0.00 | 0.00 | 0.00 | 42 | 1008.0 |
| 20260504190035 | 68 | 275 | 4.0 | 14.0 | 0.00 | 0.00 | 0.00 | 44 | 1008.0 |
| 20260504185516 | 67 | 113 | 5.0 | 14.0 | 0.00 | 0.00 | 0.00 | 43 | 1008.0 |
| 20260504185018 | 67 | 276 | 4.0 | 14.0 | 0.00 | 0.00 | 0.00 | 42 | 1008.1 |
| 20260504184542 | 66 | 192 | 4.0 | 11.0 | 0.00 | 0.00 | 0.00 | 42 | 1008.2 |
| 20260504184017 | 67 | 236 | 4.0 | 11.0 | 0.00 | 0.00 | 0.00 | 41 | 1008.2 |
| 20260504183516 | 67 | 269 | 3.0 | 9.0 | 0.00 | 0.00 | 0.00 | 43 | 1008.3 |
| 20260504183039 | 68 | 32 | 5.0 | 9.0 | 0.00 | 0.00 | 0.00 | 41 | 1008.3 |
| 20260504182518 | 68 | 291 | 4.0 | 9.0 | 0.00 | 0.00 | 0.00 | 43 | 1008.3 |
| 20260504182016 | 68 | 45 | 3.0 | 13.0 | 0.00 | 0.00 | 0.00 | 42 | 1008.2 |
| 20260504181538 | 67 | 273 | 4.0 | 13.0 | 0.00 | 0.00 | 0.00 | 42 | 1008.2 |
| 20260504181018 | 67 | 181 | 5.0 | 12.0 | 0.00 | 0.00 | 0.00 | 44 | 1008.4 |
| 20260504180520 | 67 | 193 | 4.0 | 12.0 | 0.00 | 0.00 | 0.00 | 45 | 1008.4 |
| 20260504180040 | 66 | 299 | 6.0 | 12.0 | 0.00 | 0.00 | 0.00 | 41 | 1008.5 |
| 20260504175521 | 67 | 248 | 5.0 | 12.0 | 0.00 | 0.00 | 0.00 | 42 | 1008.5 |
| 20260504175019 | 66 | 182 | 4.0 | 12.0 | 0.00 | 0.00 | 0.00 | 44 | 1008.6 |
| 20260504174538 | 66 | 281 | 5.0 | 19.0 | 0.00 | 0.00 | 0.00 | 43 | 1008.6 |
| 20260504174020 | 65 | 288 | 5.0 | 19.0 | 0.00 | 0.00 | 0.00 | 46 | 1008.7 |
| 20260504173519 | 65 | 310 | 5.0 | 11.0 | 0.00 | 0.00 | 0.00 | 43 | 1008.7 |
| 20260504173033 | 65 | 230 | 4.0 | 9.0 | 0.00 | 0.00 | 0.00 | 46 | 1008.9 |
| 20260504172518 | 65 | 302 | 4.0 | 10.0 | 0.00 | 0.00 | 0.00 | 43 | 1008.9 |
| 20260504172020 | 64 | 317 | 3.0 | 11.0 | 0.00 | 0.00 | 0.00 | 46 | 1008.8 |
| 20260504171538 | 63 | 165 | 5.0 | 11.0 | 0.00 | 0.00 | 0.00 | 45 | 1009.1 |
| 20260504171021 | 63 | 286 | 5.0 | 13.0 | 0.00 | 0.00 | 0.00 | 44 | 1008.9 |
| 20260504170524 | 63 | 236 | 4.0 | 13.0 | 0.00 | 0.00 | 0.00 | 46 | 1009.2 |
| 20260504151020 | 60 | 191 | 2.0 | 9.0 | 0.00 | 0.00 | 0.00 | 50 | 1009.8 |
| 20260504150518 | 60 | 176 | 4.0 | 9.0 | 0.00 | 0.00 | 0.00 | 50 | 1010.0 |
| 20260504141019 | 56 | 207 | 4.0 | 9.0 | 0.00 | 0.00 | 0.00 | 52 | 1010.4 |
| 20260504140516 | 56 | 196 | 2.0 | 9.0 | 0.00 | 0.00 | 0.00 | 53 | 1010.3 |
| 20260504130522 | 54 | 236 | 3.0 | 10.0 | 0.00 | 0.00 | 0.00 | 55 | 1010.6 |
| 20260504110519 | 42 | 14 | 1.0 | 4.0 | 0.00 | 0.00 | 0.00 | 84 | 1010.9 |
| 20260504100521 | 40 | 0 | 0.0 | 1.0 | 0.00 | 0.00 | 0.00 | 87 | 1010.9 |
| 20260504081537 | 43 | 245 | 0.0 | 2.0 | 0.00 | 0.00 | 0.00 | 86 | 1011.0 |
| 20260504081018 | 43 | 262 | 0.0 | 2.0 | 0.00 | 0.00 | 0.00 | 84 | 1011.0 |
| 20260504080519 | 43 | 0 | 0.0 | 2.0 | 0.00 | 0.00 | 0.00 | 82 | 1011.0 |